Location: Killam
(52.7910°N, 111.8608°W)
Time: 12:54:12
(UTC+00:00)

AO-73 - Pass Details

Date: 13 March 2026
Orbit: 514 x 567 km, 97.8° (Epoch: 13 April)

Event Time Altitude Azimuth Distance (km) Brightness Sun altitude
Rises 12:16:13 0° 7° (N) 2,691 ? -14.3°
Reaches altitude 10° 12:18:31 10° 356° (N) 1,786 ? -14.0°
Maximum altitude 12:21:52 29° 295° (WNW) 977 ? -13.5°
Enters shadow 12:23:19 22° 257° (WSW) 1,166 ? -13.3°
